Theta_e
313 312 313 313 313 316 318 320 322 321 324 325 321 320 319 319 319 319 321 321 318 318 317 318 318 317 319 318 319 318 317 321 322 324 323 321 321 319 321 317 319 319 318 318 319 325 327 329 330 330 330 330 330 330 331 332 332 331 332 333 333 332 330 330 330 330 327 325 323 321 319 319 318 319 319 318 318 318 318 318 318 318 318 325 330 333 333 334 334 332 330 327 325 325 325 325 324
312 312 314 313 315 321 320 320 325 329 328 320 317 319 317 318 318 320 325 323 319 318 318 318 318 318 318 318 319 318 318 319 319 320 319 320 321 320 321 319 319 319 319 318 318 322 325 328 328 330 330 331 330 330 331 331 332 331 331 332 332 332 330 330 330 330 326 324 323 321 320 319 319 319 320 318 318 318 318 318 317 317 317 322 328 331 333 334 335 334 332 328 325 325 325 326 325
312 314 315 315 319 320 322 322 323 331 329 318 320 325 318 316 323 325 323 320 318 316 318 318 318 319 318 319 319 319 319 319 319 320 319 320 320 319 319 318 318 318 319 318 318 319 322 325 326 328 329 330 330 331 331 331 331 331 331 331 332 332 330 330 331 330 327 324 323 322 320 320 320 320 320 318 319 319 319 319 317 317 315 319 326 331 333 334 335 335 333 330 325 323 323 324 326
313 315 317 318 320 319 330 332 330 336 328 319 321 325 323 320 326 326 317 316 317 317 318 318 319 319 319 320 319 319 318 319 319 319 319 319 318 318 317 316 317 317 318 319 318 318 320 323 325 326 326 328 329 330 330 330 331 330 330 330 331 331 330 329 330 331 328 325 323 322 320 319 320 320 320 319 320 320 320 320 318 317 316 320 326 331 334 335 335 334 334 331 325 321 320 320 323
316 317 319 319 321 320 330 329 328 331 323 323 319 318 328 328 326 321 316 317 318 318 318 318 319 319 318 319 319 319 318 319 319 319 319 318 317 316 316 316 316 316 317 319 319 319 318 320 323 325 326 326 327 328 328 329 329 329 328 329 329 330 330 329 328 330 329 327 324 322 321 320 321 320 320 320 322 322 320 319 319 317 317 322 328 332 334 335 335 333 333 331 326 322 318 318 318
318 319 319 318 320 316 322 322 321 324 323 327 319 317 326 322 319 315 315 319 318 319 319 318 319 318 318 318 319 319 319 319 319 319 319 318 317 316 316 315 316 316 316 318 319 319 318 319 320 323 325 325 326 326 326 327 328 328 327 327 327 328 328 328 327 328 328 328 326 322 321 320 320 320 320 322 323 322 320 319 319 317 318 323 328 332 334 335 335 333 333 332 329 325 321 319 317
319 320 318 320 319 318 327 326 322 323 319 318 316 320 320 313 312 313 316 318 319 318 318 319 318 318 318 317 318 319 319 319 318 319 319 318 316 316 315 314 315 316 315 317 318 320 319 318 319 321 323 325 325 325 325 325 326 326 326 326 326 325 325 326 326 326 327 328 327 324 321 320 320 320 320 322 324 323 321 320 319 318 320 324 328 331 333 334 333 332 332 331 329 327 323 318 314
319 319 317 325 328 327 334 326 324 326 317 312 314 318 316 312 312 314 317 316 318 317 317 318 317 318 318 317 317 319 318 319 319 319 319 317 316 316 316 315 315 315 315 315 317 319 319 319 319 319 320 323 325 325 325 325 325 325 325 324 324 324 324 324 325 325 325 326 327 325 322 320 319 320 321 323 324 324 321 321 320 320 322 325 328 330 331 332 331 330 328 326 324 322 318 312 310
319 319 317 325 332 332 334 323 321 322 320 318 315 316 314 313 313 314 317 316 316 316 316 318 318 318 317 316 317 318 318 318 318 319 319 317 316 316 316 315 315 315 315 315 315 317 319 320 319 319 319 321 324 324 324 324 324 324 324 323 323 323 323 323 323 324 325 325 325 325 323 320 322 325 327 327 326 325 322 321 322 322 324 326 327 329 329 328 327 326 322 318 315 314 312 310 309
318 320 317 324 332 329 326 321 321 320 322 319 314 316 314 314 315 314 316 316 316 315 316 318 318 318 317 317 318 318 318 317 317 319 319 317 316 317 316 316 315 316 315 315 315 316 317 319 319 319 319 320 322 323 323 324 324 324 323 323 323 323 323 323 323 323 324 325 324 324 323 321 326 329 330 330 329 328 326 325 323 321 323 325 326 326 325 323 322 320 316 313 311 311 310 308 307
318 318 317 329 331 322 320 322 328 328 325 319 314 315 314 315 315 314 315 315 316 315 315 317 317 318 317 317 317 317 316 316 316 316 317 317 317 317 317 316 316 316 316 315 314 315 316 317 319 319 320 320 321 322 323 323 324 324 324 323 322 322 323 322 322 323 323 324 324 324 323 321 327 329 329 330 330 331 329 329 326 321 320 321 322 320 319 317 315 314 311 310 310 310 307 305 305
318 320 329 339 326 319 321 322 329 332 331 324 316 315 315 315 315 315 315 315 315 315 315 316 316 317 317 316 316 317 316 315 315 315 316 316 316 317 317 316 316 316 316 316 315 314 315 316 317 319 320 320 321 322 323 323 324 324 324 324 323 323 323 322 322 323 323 324 324 324 324 323 326 328 328 328 328 330 331 331 329 325 322 321 321 320 318 314 312 310 308 309 309 309 305 304 304
319 319 331 331 319 322 322 319 325 328 328 321 314 315 315 314 315 315 314 315 314 314 316 316 316 317 316 315 315 316 316 315 315 315 315 315 316 316 317 317 316 316 316 316 315 314 314 315 315 317 319 320 321 321 322 323 324 324 325 324 324 324 323 323 322 323 323 324 324 325 325 324 326 328 328 327 326 328 330 331 331 329 326 325 325 324 321 315 310 309 307 308 308 308 305 304 304
318 317 324 321 316 324 321 318 322 322 321 317 315 315 315 315 315 315 314 316 314 315 316 316 317 316 316 315 315 316 315 315 315 315 315 315 315 316 317 317 317 316 316 316 316 315 315 315 314 315 316 318 320 321 322 323 324 324 325 325 325 324 324 324 323 323 324 323 324 325 326 325 326 327 327 326 326 327 328 330 331 331 329 328 327 326 323 315 310 309 307 306 307 307 305 305 305
317 316 326 324 318 322 318 319 322 321 319 317 316 314 315 316 314 315 314 316 316 315 316 316 316 316 316 315 316 315 315 315 315 315 315 315 315 315 316 317 317 316 316 316 316 316 315 315 315 315 314 316 318 320 321 321 323 324 325 326 325 325 325 325 324 324 325 325 325 325 326 326 327 327 327 326 326 327 328 329 331 332 331 330 328 326 323 315 311 310 307 305 306 306 305 305 305
316 315 324 322 316 318 315 318 320 320 320 315 315 315 316 316 315 315 315 315 316 315 316 316 316 316 316 315 315 315 315 315 314 315 314 314 315 315 315 316 317 316 316 316 316 316 316 316 315 315 314 315 316 318 320 321 322 323 324 326 326 326 325 325 325 325 325 326 326 326 327 327 327 327 327 326 325 326 326 327 329 331 331 331 328 326 324 316 312 310 307 305 305 305 305 305 305
314 318 326 320 315 317 316 321 321 319 322 317 314 315 315 316 316 315 315 315 315 315 315 316 315 315 315 315 314 314 314 314 314 315 314 314 315 315 315 316 316 316 316 316 316 316 316 316 316 316 315 315 315 316 318 321 322 323 324 325 327 327 327 327 326 326 326 326 326 327 328 328 327 328 327 326 326 325 324 324 325 329 331 330 327 325 324 317 311 310 308 305 305 305 304 305 304
318 328 326 317 318 320 320 325 320 316 320 316 314 315 314 315 315 314 315 315 315 315 315 315 316 315 314 314 314 314 314 314 314 314 314 314 314 315 315 315 316 316 316 316 316 316 316 317 316 316 316 316 316 316 317 319 321 323 324 325 326 327 327 328 328 328 327 327 326 325 327 328 328 328 328 327 326 326 324 323 322 325 328 330 327 326 324 317 312 310 308 306 305 305 304 305 304
321 327 318 321 329 321 316 319 316 314 316 314 314 314 313 315 314 314 315 314 314 315 316 315 315 315 314 314 314 314 314 314 314 314 315 314 314 314 314 315 315 316 316 316 316 316 316 317 317 317 317 317 316 317 317 318 319 321 323 324 325 326 327 328 329 329 328 328 327 326 326 326 327 328 327 326 327 326 325 324 323 324 327 328 327 327 324 316 313 311 309 307 304 304 305 305 304
317 319 320 331 326 315 312 315 315 315 315 313 314 313 312 314 314 313 314 313 314 314 315 314 315 315 315 315 314 314 314 314 314 315 315 314 314 314 314 315 315 315 315 315 315 315 316 316 316 317 317 317 317 317 317 318 318 319 321 323 325 327 327 327 328 328 328 328 328 328 326 325 326 327 326 326 326 326 326 326 326 326 326 328 328 328 326 318 314 312 310 309 306 304 304 304 304
315 317 326 326 314 313 316 314 315 315 314 314 313 313 314 315 314 314 313 314 315 314 313 314 314 314 314 315 314 314 314 314 314 314 314 314 314 314 314 315 314 315 314 314 315 315 315 315 316 316 317 317 317 317 317 318 318 319 319 321 323 325 327 328 330 329 327 328 328 328 328 326 326 326 326 326 325 325 326 326 326 327 326 327 327 328 326 321 317 314 312 311 308 305 303 304 303
317 318 319 316 311 316 317 314 316 315 314 314 312 314 315 314 314 313 313 314 316 314 313 314 313 313 314 314 314 314 314 315 314 314 314 314 314 314 314 314 314 314 314 314 314 314 314 315 315 316 317 317 317 317 317 318 318 319 319 320 321 322 325 328 331 329 327 327 327 326 327 327 326 327 327 326 325 324 326 326 326 326 326 327 327 328 327 325 321 317 315 314 311 308 305 303 303
318 319 314 314 313 315 316 316 316 314 314 313 313 314 313 312 313 313 313 314 315 314 313 313 313 313 313 313 314 314 315 315 314 314 314 314 314 314 314 314 314 314 314 314 314 314 314 314 315 316 316 316 317 317 317 317 318 318 318 320 321 321 322 326 332 331 331 334 331 328 327 327 328 327 327 327 325 323 324 326 327 326 326 326 327 327 327 326 322 320 319 318 315 311 307 304 302
318 320 315 314 314 313 315 314 314 314 313 313 313 312 311 312 314 313 312 313 313 313 313 313 313 313 313 313 314 314 314 314 314 314 314 314 314 313 314 313 314 314 314 314 314 314 314 314 315 316 316 315 316 317 317 318 318 319 319 320 320 320 320 322 328 328 330 335 336 333 327 325 327 326 327 327 326 324 323 325 327 327 326 326 326 327 326 325 323 322 321 320 318 315 311 307 303
317 320 315 313 313 313 314 313 314 314 313 313 313 311 311 312 312 312 312 313 312 312 312 313 313 313 314 314 314 313 313 313 313 314 314 314 313 313 313 313 313 314 314 314 314 314 314 314 315 316 316 315 316 316 317 318 319 320 320 321 321 322 322 321 323 325 325 326 329 333 331 330 329 326 326 327 326 325 324 326 327 325 323 323 325 327 326 324 324 323 321 320 319 317 314 310 306
314 315 313 312 312 313 313 314 314 313 313 313 312 312 312 311 312 312 311 312 311 312 313 313 313 314 314 314 313 313 312 313 313 313 313 313 312 312 312 313 313 313 313 314 314 314 314 315 316 316 316 316 316 316 317 318 319 320 321 322 323 322 323 323 324 328 330 328 329 331 332 333 333 328 326 327 328 326 325 327 325 323 323 324 325 325 325 325 325 323 321 320 319 318 316 313 309
312 312 312 312 312 313 313 313 313 312 312 312 312 313 311 310 313 315 312 311 312 313 313 312 313 313 313 313 313 313 312 313 313 312 312 312 312 312 312 312 313 313 313 313 314 314 314 315 316 316 316 316 316 316 317 318 319 321 322 322 324 324 324 325 325 326 328 329 331 332 330 330 331 330 324 324 326 326 326 326 325 325 328 330 329 328 327 326 324 323 323 321 319 320 318 315 313
312 311 313 312 311 312 313 312 312 312 313 312 311 312 311 310 313 314 310 310 312 312 313 312 312 313 312 312 312 312 312 312 312 311 311 311 311 311 312 312 312 312 312 313 313 313 314 314 315 316 316 317 317 316 316 318 320 321 322 323 324 325 325 325 325 325 325 327 328 330 332 331 330 330 328 327 327 326 324 324 324 324 326 327 327 327 326 325 324 325 324 321 320 321 320 317 316
312 311 314 315 313 315 313 311 311 311 314 312 311 314 316 315 314 312 310 310 312 312 312 311 311 311 311 311 311 311 311 311 311 310 310 310 310 310 310 311 311 311 312 312 312 313 313 314 314 315 316 317 317 317 317 318 320 322 323 324 324 325 325 325 324 324 325 325 325 325 327 328 327 328 329 330 330 328 326 325 325 324 323 323 324 324 324 324 324 324 323 322 323 322 321 319 318
313 310 312 316 317 319 312 308 311 311 313 312 311 318 325 325 316 311 310 310 312 312 311 310 310 310 310 310 310 310 310 310 310 309 309 308 309 309 310 310 311 311 312 312 313 313 313 313 313 314 314 315 315 316 317 319 321 323 324 325 325 325 325 325 324 324 325 324 325 326 326 326 327 327 327 327 327 327 328 328 329 327 323 324 325 324 324 325 324 324 323 324 324 322 321 321 319
315 310 315 318 316 324 318 308 311 313 312 311 312 318 325 326 315 309 311 311 312 311 310 310 309 309 309 308 309 309 309 309 308 307 308 308 308 309 309 310 311 311 312 313 313 314 314 314 314 315 315 315 316 317 318 320 322 323 325 325 325 325 325 326 326 327 326 325 326 327 327 327 326 324 324 324 324 325 327 327 328 327 324 326 327 325 325 325 325 325 324 323 323 321 321 321 320
322 313 322 324 315 325 323 308 308 313 312 309 313 319 320 320 314 309 310 312 312 310 308 309 308 307 307 307 307 307 307 306 306 307 307 307 308 309 309 310 311 311 312 313 314 316 316 317 317 318 318 318 318 319 320 321 323 324 325 325 324 325 325 325 327 328 328 328 327 326 326 328 327 325 324 324 324 325 326 326 326 325 325 326 325 324 325 325 324 324 323 323 322 321 321 321 321
325 316 321 326 318 321 321 312 308 309 311 310 312 317 318 318 313 309 310 312 312 309 306 306 306 306 305 305 306 305 305 305 306 306 307 307 308 308 309 310 310 311 312 313 314 315 316 317 317 317 317 318 318 319 320 321 322 323 324 324 324 325 325 325 325 326 327 327 327 327 327 328 328 327 327 327 327 326 326 326 325 324 325 325 324 323 323 324 323 322 322 321 321 321 321 321 321
325 317 316 322 319 316 319 319 312 308 313 314 313 314 315 317 312 309 310 310 310 308 304 304 304 304 304 304 304 304 305 305 306 306 306 307 307 308 309 309 310 310 311 311 312 312 313 314 315 316 316 316 316 317 318 320 322 322 323 324 324 324 324 325 325 325 325 325 325 326 326 326 325 325 325 325 326 326 326 325 324 324 325 325 324 323 323 322 321 321 321 321 321 321 320 320 320
326 322 319 320 318 316 318 319 314 312 316 315 315 315 316 317 312 307 308 309 309 306 302 302 302 302 303 303 303 303 304 305 305 305 306 307 307 308 308 309 309 309 310 310 310 310 311 312 313 313 313 314 316 317 318 320 321 321 321 321 322 322 322 323 324 323 324 324 324 324 325 324 324 324 324 324 325 324 325 325 325 325 325 325 325 325 324 323 322 323 323 323 323 322 322 321 320
324 324 324 324 321 319 318 317 313 311 314 316 315 316 318 319 314 307 306 306 305 303 301 301 301 301 301 301 302 302 303 303 303 304 306 307 307 307 307 307 308 308 308 308 308 308 309 309 310 310 311 314 316 317 319 320 320 320 320 320 320 320 320 320 321 321 321 322 321 322 323 323 323 324 323 324 324 324 324 325 324 325 325 324 324 324 324 323 322 323 323 323 323 322 322 320 319
318 318 321 322 320 319 316 316 314 308 313 318 315 316 318 317 314 306 303 305 303 301 301 300 300 300 300 300 301 301 302 302 303 304 305 306 306 306 306 306 306 307 307 307 307 307 307 307 308 308 309 311 312 313 315 316 317 318 318 318 318 318 319 318 318 319 318 319 319 319 320 321 322 322 321 321 322 322 323 323 322 323 323 323 322 322 321 320 320 321 321 321 320 320 320 319 319
314 315 316 317 317 317 314 313 314 309 312 318 314 315 318 316 312 304 302 303 302 301 300 299 299 299 299 300 300 301 301 302 303 304 304 305 305 305 306 306 306 307 307 307 307 307 307 307 307 307 307 307 308 308 309 310 311 312 312 314 315 316 316 317 317 317 316 317 318 318 318 319 319 319 319 319 319 320 321 321 321 320 320 320 319 319 319 319 319 319 319 318 318 318 317 317 317
313 313 314 316 316 317 317 314 313 310 312 319 317 315 317 315 308 303 301 301 300 300 300 299 299 299 299 300 300 301 302 303 304 304 304 305 305 305 305 306 306 306 306 306 306 306 306 306 306 307 306 307 307 307 307 307 307 308 309 311 312 312 312 313 315 315 314 315 316 316 316 317 318 318 318 318 318 318 318 319 319 319 318 318 317 317 317 317 318 317 316 316 316 316 316 316 316
314 315 314 318 316 317 322 319 315 313 311 315 316 314 316 312 306 303 301 300 299 299 299 299 299 300 300 300 301 302 303 303 304 304 304 304 304 305 305 305 305 305 305 305 305 305 305 305 305 305 306 306 306 306 306 306 306 307 307 308 309 309 310 310 310 310 310 310 311 311 312 312 313 314 314 315 316 316 316 316 316 316 316 316 316 316 316 316 316 315 314 314 314 315 315 315 315
317 317 315 318 317 317 322 318 315 316 313 313 313 316 322 318 313 308 303 301 300 299 299 299 299 299 299 300 301 302 303 303 303 304 304 304 304 304 304 305 305 305 305 305 305 305 305 305 305 305 305 305 305 305 305 305 306 306 306 306 306 307 307 307 306 306 305 305 305 305 305 306 306 307 308 308 309 310 311 311 312 311 312 312 313 313 312 312 312 312 312 312 313 313 313 314 313
321 321 318 317 318 319 319 315 315 319 319 314 312 319 331 327 318 311 305 304 302 300 298 298 298 298 299 300 301 301 302 303 304 304 304 304 304 304 304 304 305 305 304 304 304 304 304 304 304 304 304 304 304 304 304 305 305 305 305 305 305 305 305 305 304 304 304 304 303 303 303 303 303 303 303 304 304 304 305 305 306 306 306 306 306 306 306 307 307 307 308 309 310 311 311 311 311
321 321 318 315 315 316 317 315 316 321 321 313 310 317 327 328 323 312 305 306 303 300 299 298 298 299 299 300 300 301 302 303 304 304 304 304 304 304 304 304 304 304 304 304 304 304 304 304 304 304 304 303 303 303 303 304 304 304 304 304 304 304 304 304 303 303 302 302 302 302 302 302 302 302 302 302 303 302 303 303 303 303 303 303 303 303 303 303 303 304 304 305 306 307 308 309 309
323 318 316 318 316 316 318 317 317 320 319 316 316 316 318 323 321 310 305 307 304 302 301 298 297 298 299 300 300 301 302 303 303 303 304 304 304 304 304 304 304 303 303 303 303 303 303 303 303 303 303 303 303 303 303 303 303 303 303 303 303 303 302 302 301 301 300 300 301 301 300 300 301 301 301 301 301 301 301 301 301 301 301 301 301 301 301 301 301 302 302 302 303 304 304 305 306
322 314 314 317 317 319 319 318 319 316 314 320 323 315 314 323 320 308 305 309 307 305 304 300 298 298 299 299 300 301 302 303 303 303 304 304 304 304 303 303 303 303 303 303 303 303 302 302 302 302 302 302 302 302 302 302 302 302 302 302 302 301 300 300 299 299 299 299 299 299 299 299 299 299 299 299 299 299 299 300 300 300 300 300 300 300 300 300 300 300 300 300 300 301 301 302 303
313 308 314 316 315 318 319 320 321 315 314 322 324 316 316 324 322 312 308 312 313 308 304 300 298 298 299 299 300 301 302 303 303 303 303 303 303 303 303 303 303 303 303 302 302 302 302 302 302 302 302 302 302 301 301 301 301 301 301 300 300 299 298 298 298 298 298 297 298 298 297 297 297 297 297 296 297 297 296 297 297 297 297 297 298 298 298 298 298 298 298 298 298 299 299 299 300
306 311 321 318 316 317 318 320 318 315 319 323 319 315 315 319 324 320 313 313 314 309 304 301 298 298 299 299 299 300 301 302 303 303 303 303 303 303 303 303 302 302 302 302 302 302 302 301 301 301 301 301 301 300 300 300 300 300 299 299 298 298 297 297 297 297 297 296 296 296 295 295 295 295 295 294 294 294 294 294 293 293 293 294 294 294 294 295 295 295 296 296 297 297 298 298 298
308 319 323 319 320 317 317 320 317 317 325 322 313 311 312 316 324 323 315 309 307 307 305 302 299 298 299 299 299 300 302 303 303 303 303 303 303 302 302 302 302 302 302 302 302 301 301 301 301 301 300 300 299 299 299 299 299 299 298 298 298 297 296 297 297 296 295 295 295 294 294 294 293 293 293 293 293 292 292 292 291 291 291 291 291 291 290 290 291 291 292 293 293 294 295 296 296
314 321 321 321 322 319 320 322 318 319 321 314 310 312 312 316 320 318 316 309 302 301 302 300 299 299 299 299 299 300 302 302 302 303 303 302 302 302 302 302 302 302 302 301 301 301 301 300 300 300 300 299 298 298 298 298 298 298 297 297 297 296 296 296 295 295 294 294 293 293 293 293 293 293 292 292 292 291 291 291 290 290 290 290 290 289 289 289 289 289 289 289 289 290 290 291 292
315 319 321 323 322 321 324 321 316 317 316 309 309 312 313 317 316 313 312 306 299 297 299 300 300 299 300 300 300 301 301 302 302 302 303 302 302 302 302 302 302 301 301 301 301 300 300 300 299 299 299 298 297 297 297 297 297 296 296 296 295 295 295 294 294 293 293 292 292 292 292 291 291 291 291 290 290 290 290 289 289 289 289 289 289 289 289 289 289 289 289 289 288 288 288 288 289
313 317 318 320 323 325 324 322 321 321 318 311 308 312 319 321 313 305 303 299 297 298 299 300 300 300 300 299 299 301 301 302 302 302 302 302 302 302 302 302 301 301 301 300 300 300 299 299 298 298 298 297 296 296 296 296 296 296 295 295 295 294 294 293 292 292 291 291 291 290 290 290 290 290 290 289 289 289 289 289 289 289 289 289 289 289 289 289 289 289 289 289 289 289 288 288 288
313 312 315 317 321 323 319 316 318 317 317 315 312 315 320 315 307 299 298 298 296 297 298 299 300 299 299 298 299 301 301 302 302 302 302 302 302 302 301 301 301 301 300 300 300 299 299 298 298 297 297 296 295 295 295 295 295 295 294 294 294 293 292 292 291 291 291 291 290 290 290 290 290 290 290 290 290 290 290 290 290 289 289 289 289 289 289 289 289 289 289 289 289 289 289 288 288
313 311 317 317 313 319 320 312 309 310 315 316 314 317 316 310 307 301 298 300 298 297 297 298 299 298 298 298 299 301 302 302 302 302 302 302 302 301 301 301 300 300 300 299 299 298 298 297 296 296 295 295 294 294 294 294 293 293 292 292 292 291 291 291 291 290 290 290 290 290 291 291 290 290 291 291 290 290 290 290 290 290 290 290 289 289 289 289 289 289 289 289 289 289 289 289 289
316 315 317 313 310 316 320 316 314 314 317 317 314 316 316 314 314 306 300 303 302 298 297 296 297 297 297 298 300 302 302 302 302 301 301 301 301 301 301 300 300 300 299 298 298 297 297 296 295 294 294 293 293 292 292 292 291 291 291 291 290 290 290 290 290 290 290 290 290 290 290 290 290 290 290 290 290 290 290 290 290 290 290 290 290 290 290 290 290 289 289 289 289 289 289 289 289
313 314 312 312 316 318 316 317 319 318 318 320 316 313 314 315 315 312 309 308 306 301 298 297 297 296 297 299 301 301 302 301 301 301 301 301 301 301 300 300 299 299 298 297 297 296 295 294 293 292 292 291 291 291 291 291 290 290 290 290 290 290 290 290 290 290 290 290 290 290 290 290 290 290 289 290 290 290 290 290 290 290 290 290 289 289 289 289 289 289 289 289 289 288 288 288 288
308 309 309 311 316 318 318 316 317 318 319 320 317 314 316 316 314 318 318 310 303 301 300 298 297 296 298 300 301 301 302 302 302 302 301 301 301 300 300 299 298 298 297 297 296 295 293 292 291 291 291 291 290 290 290 290 290 290 290 290 290 290 290 290 290 290 290 290 290 290 290 290 289 289 289 289 289 289 289 289 289 289 289 289 288 288 288 288 288 288 288 288 288 288 288 288 288
311 312 312 313 313 314 317 315 315 318 320 321 319 315 318 317 312 315 316 308 301 301 300 298 297 297 299 300 301 302 302 302 302 302 301 301 300 300 299 298 298 297 297 296 295 293 292 291 290 290 290 290 290 290 290 290 290 290 290 290 290 290 290 290 290 290 290 290 289 289 289 289 289 289 289 288 288 288 288 288 288 288 288 288 288 287 287 287 287 287 287 287 287 287 287 287 287
313 314 314 314 314 315 316 314 314 316 317 320 320 315 317 316 308 308 311 306 301 299 299 298 297 299 300 301 302 303 302 302 302 302 301 301 300 300 299 298 297 297 297 295 293 291 290 290 290 289 289 289 289 290 290 290 290 290 290 290 290 290 290 290 290 289 289 289 289 289 289 289 289 288 288 288 288 288 287 287 287 287 287 287 287 286 286 286 286 286 286 286 286 286 286 286 287
Wind_Speed
6 5 5 3 4 3 3 2 1 2 4 3 2 1 2 3 1 1 3 3 1 2 3 2 1 4 2 1 2 3 3 4 3 2 1 4 5 6 6 4 1 1 2 5 8 12 15 17 18 18 17 17 16 16 16 14 13 13 13 12 11 10 9 9 10 9 8 8 7 6 6 5 4 2 1 0 1 3 3 4 3 2 2 5 4 3 2 3 3 4 3 2 1 1 1 1 2
5 4 4 2 3 3 2 1 2 3 5 3 2 2 3 3 1 3 5 4 1 2 1 1 2 3 2 1 1 1 2 4 4 2 2 4 5 5 5 5 3 0 2 4 6 9 13 15 16 17 17 16 15 15 15 14 12 12 11 11 10 10 10 9 10 10 9 8 8 7 6 5 4 3 2 2 2 3 4 4 3 3 3 4 5 4 4 3 4 4 4 3 1 0 1 1 2
5 3 4 2 2 3 1 2 2 2 5 3 3 4 2 1 4 7 7 6 3 4 1 1 1 3 2 1 1 1 1 3 4 4 2 4 4 5 5 6 4 2 2 4 5 7 10 13 15 16 16 16 15 15 14 13 12 11 11 10 10 10 10 10 10 10 9 9 9 8 7 7 6 5 3 3 3 4 4 4 4 4 4 5 5 5 5 4 4 4 3 3 2 2 2 2 3
6 4 5 3 1 2 3 4 2 4 3 2 1 4 2 3 6 7 6 6 5 3 1 1 1 2 1 2 1 2 2 3 2 2 1 4 4 5 5 5 4 3 1 3 4 5 8 11 13 14 15 15 15 14 14 13 12 12 11 10 10 10 10 10 10 11 10 10 10 9 9 8 7 5 4 4 5 6 5 5 4 4 5 6 6 6 5 4 5 5 3 4 4 3 4 5 5
7 5 7 4 0 1 3 3 2 4 3 4 2 3 4 6 5 6 7 6 2 0 2 3 2 1 2 1 1 2 2 2 2 1 2 3 3 4 5 5 4 2 2 3 4 5 6 9 12 13 14 14 14 14 14 13 13 12 11 10 10 10 11 11 11 11 11 11 11 11 10 9 8 6 5 5 6 7 6 6 5 5 6 7 7 6 6 5 6 6 5 5 5 5 6 7 8
8 5 7 5 3 2 2 3 2 1 4 5 3 3 5 6 5 5 8 4 2 1 3 3 1 3 2 1 2 2 2 3 4 3 3 2 3 4 5 5 4 3 2 3 3 4 5 8 10 12 13 13 14 14 13 13 13 12 11 10 10 10 10 11 11 11 12 12 12 12 11 10 8 7 6 6 7 7 6 5 5 6 7 7 8 7 6 7 8 7 5 6 6 7 8 10 11
8 6 5 3 3 3 3 3 3 1 2 4 2 4 6 5 5 4 7 2 2 3 3 2 1 2 1 2 3 2 4 5 6 5 3 2 1 3 4 5 4 3 3 3 4 4 5 7 9 11 13 13 14 14 14 13 13 13 12 11 11 10 10 11 11 11 12 12 12 13 12 11 10 9 7 7 6 6 5 5 5 6 6 7 8 8 8 9 10 9 8 8 8 9 12 15 15
9 6 3 2 2 4 4 3 2 2 1 3 3 6 6 5 2 1 3 1 2 3 3 2 1 2 1 3 5 4 6 6 8 6 3 2 0 2 3 4 4 3 3 3 4 5 6 7 8 10 12 13 15 15 14 14 14 13 13 12 11 11 11 11 11 11 11 12 12 13 13 12 11 9 8 7 6 6 4 4 4 5 5 7 8 8 9 9 11 13 13 12 11 13 16 16 14
9 6 2 3 2 4 3 1 2 2 3 3 4 7 6 4 0 0 2 2 3 3 4 3 1 3 4 6 6 5 6 7 9 6 2 2 1 2 2 2 4 5 4 3 3 5 6 7 8 9 11 12 14 15 14 14 14 14 14 13 12 11 11 11 11 11 11 12 13 13 14 13 10 8 8 7 7 6 5 5 5 5 6 7 7 8 9 10 13 15 16 16 14 14 15 14 11
8 6 2 3 3 4 3 1 1 2 4 4 6 8 5 4 2 0 1 2 3 3 4 3 1 3 6 7 5 5 7 8 10 8 4 3 3 4 4 2 3 5 6 5 4 5 6 7 7 9 10 12 14 15 15 15 15 15 14 14 13 12 12 12 12 12 12 12 13 13 13 12 9 8 9 8 8 8 8 8 6 7 8 7 8 8 10 12 14 17 17 17 15 13 12 10 8
5 5 4 4 4 2 1 2 3 4 6 5 5 4 3 3 2 0 1 3 4 5 5 4 1 2 5 6 5 6 7 9 10 11 8 5 6 6 6 4 2 3 6 6 5 5 6 7 7 9 10 12 13 15 15 15 15 15 15 15 14 13 12 12 12 13 12 12 13 12 12 11 10 9 10 9 9 9 9 10 8 8 8 8 8 8 10 11 14 16 15 15 13 10 8 7 6
2 2 4 4 3 2 3 2 4 6 6 5 2 4 6 5 2 1 2 3 4 5 5 3 2 3 3 5 6 5 6 10 13 13 11 8 8 8 8 7 6 4 5 7 6 5 6 7 8 9 10 12 13 15 16 16 16 16 16 16 15 13 13 13 13 13 13 13 12 12 12 11 11 10 10 10 10 10 10 10 10 10 10 9 9 9 10 11 13 14 13 11 9 7 7 6 5
3 2 4 3 2 3 3 2 4 4 5 3 1 4 7 4 2 2 2 3 4 3 3 2 3 3 2 5 7 4 6 15 17 15 15 11 9 8 9 9 8 7 6 7 6 5 6 7 8 9 10 11 13 14 16 16 16 16 17 16 16 15 14 13 13 13 14 13 12 12 12 12 12 12 12 11 11 12 12 11 11 11 12 12 12 11 12 12 12 12 11 9 7 6 6 6 4
4 3 5 3 1 2 4 0 2 1 2 3 2 6 7 3 2 4 1 3 4 0 3 3 2 3 3 5 8 9 13 17 18 17 16 12 8 6 8 9 10 10 8 8 7 6 5 6 8 9 10 11 13 14 16 17 17 17 17 17 16 16 15 14 13 14 14 13 13 12 13 13 13 13 13 12 12 13 13 14 12 12 13 14 14 13 13 13 11 11 10 9 7 6 6 5 4
4 3 5 3 2 0 3 1 1 4 2 3 2 9 8 2 3 5 2 2 4 2 4 4 2 3 5 6 10 15 17 17 17 16 14 12 9 7 7 7 9 11 10 10 10 9 7 7 8 9 11 11 12 14 15 16 17 17 18 18 17 16 16 15 14 14 14 15 14 13 13 14 14 14 14 13 13 14 14 15 14 14 14 15 15 15 15 13 12 11 9 8 7 6 5 5 4
5 3 5 3 1 1 2 2 2 3 3 4 3 10 8 3 6 7 5 6 8 8 6 5 4 7 11 11 13 16 16 15 15 14 13 11 9 8 8 7 8 10 11 11 11 10 9 8 8 9 11 11 12 13 14 16 17 17 17 18 18 17 17 16 15 15 15 15 15 14 15 15 15 15 15 15 15 15 16 16 15 15 15 16 16 16 15 14 12 11 9 8 7 6 5 5 5
4 3 5 3 1 1 2 4 3 3 4 4 4 10 6 5 8 7 9 10 11 10 8 8 10 11 11 11 13 15 14 14 13 12 11 10 9 10 10 10 9 10 12 12 12 12 11 10 10 10 11 12 12 12 13 15 16 17 17 18 18 18 18 17 16 16 16 16 16 16 16 17 17 17 16 16 16 17 17 17 17 17 17 18 17 16 16 14 13 11 10 9 8 8 6 6 6
3 3 3 1 2 3 4 6 6 3 3 4 5 9 4 5 9 10 11 9 9 12 14 12 10 8 7 11 16 16 15 14 12 10 9 8 10 10 10 10 10 11 12 13 13 13 13 12 12 11 12 12 12 13 13 14 15 16 17 18 18 19 18 17 17 17 17 16 16 16 17 18 18 18 18 18 18 18 19 19 19 18 18 19 18 16 17 14 12 11 10 9 9 9 8 8 7
3 3 2 2 5 4 5 6 6 3 3 7 8 7 4 6 9 10 7 10 11 12 16 14 8 9 12 16 17 14 13 11 9 8 7 7 9 10 9 9 8 10 11 12 13 14 14 13 13 13 12 12 12 13 14 14 15 15 16 17 18 19 19 18 18 18 18 18 18 17 17 18 19 19 18 19 19 19 19 19 18 18 18 20 19 17 17 15 12 11 9 8 8 9 10 9 8
2 3 1 5 6 4 5 5 6 5 6 8 8 6 7 10 10 7 5 10 12 9 12 10 8 16 20 17 14 11 10 9 8 7 6 7 7 8 9 8 7 8 9 11 12 13 13 13 13 13 13 13 12 13 13 14 14 15 15 16 17 18 19 19 19 19 19 19 19 18 18 18 18 19 19 19 20 20 20 19 18 18 19 20 20 18 17 15 13 12 9 8 8 9 11 10 10
1 3 3 4 3 1 5 4 5 6 6 6 7 7 10 12 9 7 5 6 10 10 8 7 12 21 20 15 12 10 9 9 9 8 8 8 7 8 8 9 8 9 9 10 11 11 12 12 12 12 12 12 12 12 12 13 13 14 15 15 16 17 18 19 20 21 20 20 20 20 20 19 19 19 19 19 20 20 20 21 19 19 19 20 20 18 17 17 16 14 11 10 9 9 11 11 11
1 3 3 3 3 1 6 5 6 7 6 7 7 7 9 11 11 11 6 3 10 13 10 13 18 18 15 12 10 10 10 10 11 10 10 9 9 8 8 9 9 9 10 12 12 11 11 11 10 10 10 10 10 10 10 11 11 13 14 15 16 16 17 17 20 22 20 20 21 20 21 21 20 20 20 20 21 21 21 21 20 19 19 20 21 19 19 20 19 16 14 13 11 10 11 12 12
1 3 4 3 3 5 9 9 9 9 9 9 8 9 11 11 14 13 10 13 17 19 16 16 14 10 9 8 8 9 10 11 12 12 11 11 10 9 9 9 9 10 12 14 14 13 11 9 9 9 8 8 8 8 8 8 8 10 11 12 15 16 16 16 20 22 20 22 22 21 21 22 21 21 21 21 22 21 21 20 20 20 20 20 22 22 22 22 20 17 16 16 14 13 12 13 14
2 3 4 5 6 7 10 12 13 14 13 14 12 12 12 10 10 11 14 18 16 13 9 8 7 7 8 8 8 9 9 10 10 11 11 12 12 11 10 10 11 13 14 14 14 14 12 9 8 8 8 7 7 7 7 7 7 7 8 9 11 13 14 14 18 20 20 21 22 23 22 22 23 23 22 22 22 22 21 19 20 21 21 22 22 22 25 23 19 19 19 19 17 16 14 14 15
4 3 4 4 7 9 13 16 18 17 16 16 13 13 15 11 9 11 15 13 9 6 5 6 5 6 8 10 10 8 7 7 7 9 9 11 11 11 12 12 12 12 12 12 12 12 11 8 7 7 8 8 8 7 7 6 6 7 7 8 9 10 12 12 13 16 16 17 20 23 23 22 23 23 23 22 21 22 21 20 21 22 21 22 22 24 25 22 21 22 21 20 19 18 17 15 16
3 4 5 6 10 14 16 18 18 16 14 13 9 12 14 7 5 8 6 6 8 6 6 6 5 6 8 8 8 8 7 6 7 8 9 10 10 10 10 11 12 11 11 11 11 11 10 8 6 7 9 9 9 8 7 6 6 6 6 7 8 9 9 10 11 13 16 16 17 20 21 22 22 21 22 22 22 22 21 21 21 22 22 22 22 23 22 21 24 25 22 21 21 19 19 17 17
2 3 6 9 14 17 16 17 19 15 14 12 7 10 10 2 1 2 6 11 7 5 7 7 7 8 7 5 6 7 8 8 10 10 9 9 9 9 9 9 10 10 10 10 10 10 10 8 5 5 7 9 9 8 8 7 6 5 5 6 7 8 8 8 8 9 13 16 16 17 18 20 20 20 20 19 20 21 21 22 20 21 24 22 20 19 20 24 27 25 24 25 22 19 20 19 18
3 5 7 10 13 15 15 15 14 9 7 7 5 6 6 0 2 1 7 10 8 8 9 7 7 7 4 4 5 6 8 9 11 11 10 9 8 9 9 9 9 10 10 11 11 10 9 8 6 4 5 6 8 8 9 9 7 6 5 5 5 6 6 6 6 6 9 11 13 15 16 17 18 19 20 18 18 19 19 19 18 19 21 21 20 20 22 25 25 23 25 25 21 20 20 18 18
3 4 5 9 10 10 10 6 3 1 1 3 1 3 5 2 5 3 9 9 9 11 11 8 6 5 3 3 4 5 7 9 10 11 11 10 10 10 10 10 11 11 12 13 12 11 9 7 5 4 4 5 6 8 8 9 8 7 5 4 4 4 4 4 5 5 5 6 6 8 11 13 13 14 16 17 17 19 19 18 17 18 17 17 18 19 21 22 21 21 22 22 21 22 20 18 18
4 3 2 5 8 6 4 1 0 0 2 2 3 2 6 6 7 3 9 11 13 13 11 9 6 4 3 3 4 5 6 8 9 9 9 9 10 10 10 11 11 11 11 11 11 10 9 7 5 4 5 6 6 6 7 8 8 7 5 4 2 2 1 2 3 3 3 3 4 7 8 9 11 11 12 13 13 14 17 19 20 19 15 14 17 17 17 18 17 18 17 18 21 21 19 18 18
2 2 2 3 2 5 5 2 1 1 2 3 5 2 6 8 8 5 11 16 17 14 10 8 6 4 4 4 4 5 6 8 8 8 8 9 9 10 10 10 10 10 10 10 10 10 9 7 5 4 3 3 4 3 4 5 6 6 5 4 2 1 2 3 3 3 3 3 5 8 7 7 8 9 11 12 11 11 12 14 16 16 14 13 16 16 15 15 15 15 16 17 19 19 19 19 18
2 1 3 3 1 5 9 5 0 1 1 2 5 2 6 9 7 6 14 20 18 12 9 7 6 5 4 4 4 4 6 7 7 7 7 8 9 9 10 9 10 9 9 10 10 10 9 8 6 5 3 2 1 1 1 1 2 4 4 3 3 3 3 3 2 2 4 5 6 6 6 8 9 10 11 11 10 10 10 10 11 12 12 12 14 14 13 14 14 14 14 15 16 17 18 19 19
3 0 3 3 2 3 7 4 2 1 1 2 3 1 4 7 8 9 18 19 14 10 10 9 7 7 7 6 6 5 5 6 6 7 8 9 9 10 10 11 11 10 9 9 8 8 8 8 7 7 6 6 6 5 4 4 2 2 4 4 4 3 2 2 3 3 5 6 7 7 6 8 10 10 10 11 11 10 9 9 10 11 11 12 13 13 14 14 15 15 15 15 15 16 18 20 20
3 1 2 4 3 2 4 3 4 6 4 3 3 1 5 9 12 13 18 15 10 11 11 11 10 9 9 8 7 7 7 8 9 10 10 10 10 10 11 11 11 10 9 9 9 8 8 8 8 8 8 8 7 7 6 6 5 4 5 5 4 4 4 3 2 1 1 3 5 6 7 8 9 8 7 8 9 10 10 10 11 11 12 13 14 13 14 14 14 14 14 15 15 16 18 20 21
4 2 3 3 3 3 4 4 3 6 6 4 2 2 8 11 10 12 17 12 10 13 13 12 12 12 11 11 11 11 11 12 12 12 11 10 10 10 10 10 10 10 10 10 10 9 9 9 8 8 8 9 9 8 8 8 7 7 6 5 5 5 5 4 3 2 3 2 1 3 5 7 8 9 9 9 10 11 12 13 15 15 13 14 16 17 16 15 15 15 15 17 17 18 18 19 19
6 5 4 3 3 4 5 5 4 1 3 4 4 5 8 10 7 10 14 12 14 14 13 13 13 14 14 15 15 15 16 16 15 13 13 13 13 14 13 14 14 14 14 15 14 14 14 13 12 12 12 10 9 8 8 7 7 7 5 4 6 7 5 3 2 1 2 3 3 5 5 5 6 6 8 10 11 11 12 13 15 15 14 16 18 18 17 17 18 17 17 19 20 19 18 17 18
4 3 3 4 4 5 4 4 5 0 0 5 4 4 7 7 5 9 9 11 15 12 13 14 14 15 16 16 18 18 19 19 17 17 18 19 19 20 20 21 21 21 22 22 23 23 23 21 20 20 17 14 11 10 9 7 6 6 4 4 5 7 6 3 3 1 2 2 3 6 5 5 6 8 8 8 9 9 10 11 11 11 11 13 14 14 15 16 16 16 18 20 20 19 18 17 17
3 2 2 3 4 6 5 3 5 1 2 4 1 2 8 5 4 8 9 9 10 8 11 12 13 15 16 17 19 19 21 21 22 23 24 25 25 25 26 26 26 27 28 28 29 29 28 28 28 27 25 22 21 18 16 14 13 11 9 9 7 5 5 3 3 3 2 2 3 5 5 7 8 11 12 12 11 10 10 11 11 11 10 9 10 10 11 13 14 15 16 17 17 17 17 16 17
2 2 1 4 3 4 5 3 4 3 2 4 4 4 6 2 4 7 10 9 9 9 11 11 13 15 16 18 19 21 24 25 26 27 28 28 28 28 29 29 30 30 31 31 31 31 31 31 31 31 30 29 28 25 23 22 19 16 14 13 10 8 8 7 6 5 3 3 5 5 6 7 8 10 12 12 14 14 14 14 15 15 15 14 14 14 14 14 15 15 15 15 15 16 15 15 16
3 3 3 4 2 0 3 3 4 3 1 2 2 4 5 1 4 6 9 10 12 13 13 13 14 15 16 17 19 23 26 27 27 28 28 28 28 29 30 31 30 30 31 31 31 30 31 31 31 31 30 30 30 28 27 24 21 19 17 15 13 13 13 11 8 7 6 5 5 5 5 5 6 9 11 12 14 15 17 18 18 19 20 21 20 20 20 20 19 20 19 19 18 18 18 18 18
3 5 5 5 3 5 6 3 4 3 3 1 2 4 5 1 2 2 5 8 10 10 12 13 12 14 15 17 20 23 25 26 27 28 28 28 28 29 29 29 29 29 30 30 29 29 28 28 28 28 28 29 28 27 26 24 22 20 18 17 16 14 13 12 11 13 13 12 11 11 10 9 8 7 7 9 10 12 14 15 17 19 20 21 22 22 22 22 22 23 23 23 22 22 22 23 22
4 5 9 9 7 7 5 2 4 3 3 2 2 2 5 4 1 3 2 3 5 6 8 10 9 12 14 17 20 22 24 25 26 27 27 27 28 27 27 27 27 27 28 27 26 26 25 25 25 25 25 25 25 24 23 21 20 19 17 17 16 14 14 15 17 18 17 17 16 15 14 14 13 12 11 10 9 9 9 10 12 13 15 16 17 17 17 18 18 19 20 20 21 21 22 23 23
2 4 8 9 6 5 4 2 3 1 2 2 2 1 4 6 4 4 5 3 3 3 5 5 8 11 14 17 19 21 23 25 25 26 25 26 26 25 25 25 25 25 25 24 23 23 22 22 22 22 22 22 21 21 19 17 17 17 16 16 16 16 17 18 18 17 17 17 15 14 14 13 14 13 13 13 12 12 11 11 11 11 12 12 13 13 14 14 14 15 16 16 17 19 20 21 21
3 3 5 6 6 6 5 5 4 2 2 3 3 1 2 4 4 3 6 6 3 2 2 3 7 11 14 17 19 21 23 24 25 25 24 24 24 23 23 22 22 22 21 20 20 20 20 19 19 19 19 19 19 18 16 16 16 16 16 16 16 17 17 18 16 15 15 13 12 12 13 13 13 13 13 13 13 12 12 12 13 12 12 12 13 13 13 13 13 13 13 13 14 15 17 18 19
4 4 6 6 6 5 4 5 3 1 2 4 4 0 1 5 4 1 3 4 3 5 6 5 8 11 14 17 18 20 22 23 24 23 23 22 22 21 20 19 19 19 18 17 17 17 17 17 16 15 16 17 16 15 14 15 15 15 14 14 15 16 16 15 13 12 13 11 11 12 12 13 14 14 14 14 13 13 14 13 13 13 13 14 14 14 13 13 13 13 12 12 12 13 14 16 17
4 7 7 6 5 5 4 5 3 2 1 4 6 3 2 5 5 1 2 4 5 7 5 6 10 13 14 17 18 20 21 22 22 22 21 20 19 19 17 17 16 15 15 15 15 15 14 14 12 12 14 14 13 12 11 11 11 11 11 12 12 13 13 11 9 9 11 11 11 12 12 13 13 13 14 15 14 15 16 15 15 15 15 15 15 15 15 15 15 16 15 15 14 13 13 13 14
9 7 6 6 5 5 3 2 4 2 2 6 6 4 2 3 5 3 4 3 4 6 5 6 10 14 16 17 18 20 21 22 21 20 19 18 17 16 15 14 13 13 13 12 12 12 11 11 10 10 12 11 10 9 8 8 8 8 9 10 11 12 11 9 7 9 10 10 11 13 13 13 13 14 15 15 16 17 17 18 18 18 18 17 17 17 17 17 17 17 17 17 16 15 14 13 13
7 4 4 4 2 4 4 4 3 1 5 5 3 2 2 3 5 4 4 3 3 5 6 8 12 16 19 19 19 20 21 21 20 19 17 16 15 14 12 11 11 11 10 9 9 9 8 8 8 8 9 8 8 8 7 7 7 8 9 9 9 10 9 8 8 10 10 11 12 13 12 12 13 13 14 15 16 17 17 18 18 18 18 19 19 19 19 19 18 18 17 17 17 17 16 16 15
4 4 5 4 2 2 2 2 0 3 5 3 1 1 3 5 6 4 5 4 3 5 7 12 18 21 22 21 20 21 21 20 19 18 16 14 13 12 10 9 9 8 7 7 7 7 6 6 6 6 6 7 7 6 6 7 7 8 9 9 10 10 10 10 10 11 12 12 13 13 13 14 14 15 16 16 17 17 17 17 18 18 18 19 19 19 19 19 19 19 19 18 18 18 18 17 17
4 5 5 4 2 1 3 3 1 3 3 2 1 1 1 4 5 4 4 4 4 6 8 14 21 25 25 23 22 21 21 20 18 17 15 13 12 10 9 8 7 6 5 5 4 5 5 4 4 5 5 6 6 5 6 6 7 9 9 9 10 10 10 11 11 12 13 14 14 15 16 16 17 17 18 18 18 17 17 18 18 18 18 19 19 19 19 19 20 20 20 20 19 19 19 18 18
3 3 5 4 5 4 4 3 3 4 2 2 2 1 3 4 2 3 5 5 5 6 9 15 21 24 24 23 23 22 21 20 18 16 15 13 11 10 8 7 5 4 3 3 3 3 3 3 3 4 4 5 5 5 6 6 7 8 9 9 9 10 10 11 12 12 13 14 15 16 17 17 18 18 19 19 18 18 18 18 19 19 19 19 19 20 20 20 21 21 21 21 21 20 20 20 20
1 2 4 2 4 4 1 2 5 3 2 3 2 3 4 4 1 2 3 3 2 2 6 16 22 23 23 23 23 23 22 20 19 17 15 13 11 9 8 6 5 3 2 2 1 1 1 1 1 2 2 3 3 4 4 5 6 6 6 7 7 8 9 10 10 11 12 13 15 15 16 17 18 19 19 20 20 21 22 22 22 22 22 22 22 22 22 22 22 22 23 23 23 23 23 23 23
2 2 3 4 3 6 3 2 1 4 1 3 2 3 3 0 1 2 1 2 2 1 6 15 22 22 23 24 25 24 23 21 19 17 15 13 11 10 8 6 5 3 3 2 2 2 2 1 1 1 1 2 2 2 2 3 3 3 4 5 5 6 7 7 8 9 10 11 12 13 14 15 16 17 18 19 21 21 23 24 24 25 25 26 26 26 26 25 25 24 24 24 25 25 25 25 25
4 3 5 3 2 4 3 1 2 3 3 4 1 3 4 1 2 2 1 2 4 4 6 11 17 20 22 25 27 26 23 21 19 18 16 13 12 10 9 7 6 5 4 4 3 3 3 3 4 3 3 3 3 2 2 2 2 3 3 3 4 5 5 6 7 8 9 10 11 12 13 14 15 16 17 18 19 20 21 22 23 24 26 26 28 28 29 29 29 28 27 26 26 26 26 25 26
4 4 3 3 3 2 2 2 1 1 3 4 2 2 3 4 4 3 4 8 8 6 6 8 13 19 24 28 29 27 24 22 21 19 16 14 12 11 9 8 7 6 6 5 5 5 5 5 5 5 5 4 4 3 2 2 2 2 2 3 3 4 5 7 8 9 10 11 13 14 15 16 17 18 19 20 21 21 22 22 23 24 24 25 26 27 28 29 30 30 30 30 29 29 29 28 27
3 2 1 2 2 3 2 2 2 2 3 3 4 2 3 5 6 8 11 12 11 10 8 10 15 23 29 31 31 29 26 23 21 18 16 14 12 11 10 9 8 8 8 7 7 7 7 7 6 6 6 5 4 3 2 1 1 1 2 3 5 6 8 9 10 11 13 14 16 17 18 20 21 21 22 23 24 24 24 24 24 25 25 25 25 26 26 27 28 28 29 30 31 31 32 33 31
3 3 2 1 1 2 1 1 2 3 3 2 3 5 5 4 3 8 10 10 12 14 13 13 19 27 32 33 32 29 25 22 19 17 16 14 12 12 11 11 10 10 9 8 8 9 8 8 8 7 6 5 4 3 1 0 2 3 5 6 7 9 10 11 12 13 15 16 18 20 20 21 23 23 24 25 25 25 25 25 25 25 25 25 26 26 27 28 29 29 30 30 31 32 33 34 35
5 5 6 6 4 3 2 3 1 2 2 3 3 6 7 4 2 4 5 6 12 16 15 15 23 31 34 34 32 27 23 21 18 16 15 14 13 12 12 12 12 11 10 10 10 10 10 10 9 8 6 5 4 2 1 2 4 5 6 8 9 11 12 13 14 16 17 19 21 22 23 24 25 26 27 27 27 27 26 26 25 24 24 24 26 27 28 29 30 31 32 33 34 35 36 36 37
Wind_Direction
332 323 310 313 314 313 316 325 61 12 64 80 327 41 238 227 211 278 278 284 296 277 214 247 185 158 150 170 210 229 208 183 183 116 139 286 331 331 335 342 313 59 144 173 191 197 192 189 192 196 200 202 203 203 208 210 213 218 218 224 229 235 239 235 230 227 224 218 212 199 194 184 177 174 167 252 302 300 297 294 279 251 192 158 162 176 202 242 242 212 209 214 174 99 53 4 325
354 345 343 349 345 345 261 65 84 352 51 74 286 175 258 295 348 237 228 228 205 3 229 215 197 205 238 237 253 289 241 233 240 242 270 312 329 331 337 333 311 209 148 167 189 199 200 197 194 196 199 203 206 207 212 214 216 222 222 225 227 230 231 231 226 223 224 220 217 205 202 199 199 206 212 244 281 295 298 290 275 256 217 177 172 190 208 233 261 245 224 230 232 230 278 325 322
17 20 15 18 4 7 148 57 82 62 71 98 275 245 285 358 232 237 226 233 282 348 310 218 223 213 185 56 298 140 243 255 272 272 283 328 334 349 345 333 319 265 174 162 187 200 205 205 201 200 199 201 205 207 213 218 221 224 225 227 227 227 228 228 223 222 223 219 219 213 209 212 219 225 233 254 282 296 295 283 265 248 225 194 183 192 213 229 260 260 243 250 264 291 293 286 273
27 41 25 6 356 20 78 49 122 113 105 171 312 271 254 188 232 250 260 290 302 322 22 350 327 206 194 353 286 200 292 292 300 278 301 350 348 355 357 351 337 292 230 170 180 197 207 210 211 208 204 203 205 207 211 218 222 225 225 226 227 228 231 231 227 225 225 222 219 217 216 220 228 236 250 273 296 300 291 274 251 234 221 202 192 195 216 230 249 258 263 262 261 292 306 296 275
17 28 17 358 194 65 82 72 109 95 162 184 84 283 255 215 239 278 295 331 337 280 14 358 354 332 306 297 265 222 341 0 360 303 304 355 17 10 14 9 353 325 278 207 182 190 204 212 215 214 212 209 209 210 211 216 221 225 227 225 228 231 233 234 232 230 229 228 224 221 221 225 232 240 256 281 297 302 291 266 233 220 213 203 202 205 222 235 246 257 261 259 266 286 301 302 290
6 3 9 27 98 83 107 100 107 78 214 174 94 284 277 236 236 305 314 346 77 343 349 5 18 334 325 304 290 263 340 352 339 312 296 347 37 27 23 17 9 348 295 239 204 189 196 210 217 217 217 214 214 215 213 215 219 224 228 227 230 233 236 237 236 235 234 233 230 226 225 229 235 242 257 283 297 304 292 254 221 215 207 202 209 212 221 237 251 263 270 274 281 281 287 295 293
2 349 354 53 77 38 101 119 168 190 227 172 125 265 282 273 233 310 332 358 21 352 4 13 16 343 331 352 331 317 333 330 334 320 293 319 47 41 31 27 25 5 325 262 230 200 196 207 215 219 219 218 219 219 216 217 220 224 227 229 230 233 237 240 241 241 240 239 235 231 229 231 236 244 258 281 293 300 285 242 222 218 207 206 214 219 227 245 265 282 286 286 280 278 287 292 288
357 353 11 81 47 26 89 106 216 203 308 220 245 256 277 309 231 276 325 326 345 347 7 346 14 20 277 326 325 330 345 337 342 330 292 290 174 42 31 40 43 32 354 289 245 220 208 208 213 219 221 220 223 225 222 221 223 226 229 230 231 234 238 242 244 243 245 246 243 238 233 234 240 251 266 284 293 288 263 237 229 219 212 218 225 234 249 267 284 290 289 285 281 287 293 293 286
351 354 31 74 75 33 52 30 284 239 277 268 271 267 287 333 304 110 292 287 320 311 345 338 350 359 299 309 317 343 6 351 351 350 316 283 270 341 343 36 44 42 16 324 269 241 226 218 216 217 221 222 225 229 228 227 227 230 232 234 234 236 239 244 246 244 246 248 249 246 239 239 243 254 269 286 296 279 246 239 236 224 218 229 244 257 271 282 289 290 289 292 294 298 297 293 287
355 15 69 79 79 47 26 314 302 262 268 271 273 280 304 338 316 358 260 295 313 307 349 352 297 320 309 309 331 16 22 15 16 13 353 299 290 309 302 314 24 32 20 345 294 263 245 235 227 220 221 222 225 230 232 232 232 234 236 238 240 239 242 246 249 247 247 248 251 251 246 240 237 248 262 275 286 274 250 248 245 233 229 234 248 261 275 284 287 287 290 297 304 305 302 295 289
359 26 74 80 68 79 120 229 286 284 280 292 290 307 344 333 320 327 5 333 314 309 332 359 323 310 317 309 334 10 31 35 25 10 358 325 307 303 292 278 287 353 7 352 316 285 266 250 243 232 225 224 226 230 235 236 236 237 239 242 244 244 246 248 249 249 248 248 250 252 250 242 237 245 257 266 275 273 260 256 253 244 242 246 256 270 283 289 287 287 295 305 307 303 302 300 295
10 18 58 86 104 155 167 209 277 289 306 327 341 18 9 335 348 325 320 326 312 313 319 344 335 336 334 315 338 8 34 13 357 352 350 331 310 303 296 278 266 288 334 349 331 299 284 268 258 248 237 230 227 230 235 238 239 239 241 245 248 249 250 250 250 250 250 249 250 250 248 240 238 245 253 261 265 268 267 264 261 256 255 261 271 284 295 298 296 299 310 317 311 298 297 301 301
74 141 75 90 146 148 143 196 273 306 331 338 278 346 353 322 319 320 277 281 291 309 334 333 320 332 300 306 333 344 339 338 337 339 340 333 314 302 297 282 269 272 297 333 336 310 293 283 272 262 252 239 232 230 234 238 240 241 243 246 248 250 251 253 252 251 252 251 251 248 244 236 237 243 249 255 258 260 265 268 268 267 267 271 276 287 301 306 308 311 318 318 309 296 294 298 301
77 142 96 107 87 129 156 228 300 89 300 275 289 342 351 316 315 341 309 293 292 285 351 323 287 315 309 313 324 320 321 324 325 328 334 336 329 319 305 288 277 273 283 311 322 314 301 295 285 274 265 252 241 233 233 236 238 240 243 246 248 250 251 254 253 253 254 253 252 246 240 237 238 242 246 251 254 256 261 266 268 271 275 277 278 285 298 308 315 316 318 316 302 289 289 291 294
76 101 94 112 53 88 181 171 128 129 214 252 334 347 350 343 352 348 349 333 314 326 324 299 259 301 312 312 314 320 322 320 322 324 328 333 334 341 328 301 283 277 283 299 311 311 301 294 294 287 276 267 255 243 238 236 236 238 240 244 247 250 251 253 254 253 253 253 253 247 240 240 242 244 247 249 251 253 257 263 266 269 274 278 280 284 295 308 317 315 316 314 297 285 285 282 285
69 76 76 89 79 252 180 169 138 129 233 240 346 350 355 346 349 347 340 321 302 301 294 277 270 289 298 302 312 322 324 321 322 320 321 326 327 334 335 321 296 283 283 290 298 301 295 287 291 295 288 279 269 257 248 242 239 239 239 241 244 248 250 251 254 254 254 253 252 249 245 243 244 246 248 249 250 253 256 261 264 265 271 275 277 282 293 306 313 313 312 309 296 284 278 273 275
44 60 71 60 146 205 190 184 166 152 262 274 347 355 355 318 332 334 322 308 295 294 284 280 285 290 300 311 323 325 325 323 320 318 318 322 323 325 329 324 306 289 284 288 293 294 294 288 283 287 292 288 280 269 259 252 246 242 241 240 241 245 248 248 251 253 254 253 251 248 247 247 247 247 249 251 251 253 257 261 262 262 266 271 274 279 289 299 308 312 309 303 297 286 276 270 268
29 94 88 7 184 191 182 183 190 173 284 293 330 344 333 302 322 328 321 305 303 305 299 298 299 304 318 326 330 327 326 324 322 325 323 323 320 317 319 315 305 294 289 290 292 294 293 289 283 279 283 289 287 278 268 260 254 248 244 242 242 243 245 246 248 252 253 253 253 249 247 248 249 248 249 253 254 257 260 262 263 262 263 268 272 277 284 292 305 310 306 303 301 290 276 272 270
58 109 79 256 203 207 198 187 196 187 299 292 309 325 306 294 311 326 322 305 318 316 308 314 325 333 335 334 333 328 324 322 324 332 331 326 316 309 308 303 297 291 286 284 285 287 288 286 283 279 277 283 285 282 276 268 262 257 251 247 244 244 244 244 244 247 250 250 252 252 249 248 250 251 251 253 256 259 263 266 267 263 262 267 271 277 283 291 302 306 307 306 301 289 276 273 275
64 96 71 247 217 234 243 225 232 254 292 295 308 316 306 308 308 312 306 309 314 300 300 312 331 331 332 338 337 331 331 332 332 336 334 327 318 312 310 306 298 289 283 282 280 280 283 282 278 276 274 276 278 279 277 273 270 267 264 257 251 248 248 247 247 246 246 248 250 252 252 250 250 252 253 254 255 258 262 267 267 264 263 266 270 277 281 290 302 306 312 313 303 289 273 269 273
113 135 170 225 185 264 271 271 286 289 297 289 301 313 310 314 311 295 306 331 308 297 315 323 321 322 327 337 343 347 354 358 355 349 341 331 323 316 310 310 307 303 300 295 289 281 279 280 275 268 265 267 274 277 275 274 272 271 270 267 262 255 252 251 251 252 248 246 249 251 254 254 253 255 255 255 256 257 259 263 264 264 265 266 270 276 279 289 302 307 314 316 308 293 276 265 264
175 213 227 220 155 249 292 316 324 315 310 295 299 307 306 312 305 289 288 273 278 295 320 316 314 318 325 337 349 359 5 10 12 5 356 345 334 327 316 311 306 306 310 308 303 290 277 276 275 265 257 258 268 276 275 273 271 270 271 271 270 265 260 254 252 258 256 251 253 251 253 255 255 256 257 257 259 259 258 261 265 265 265 266 272 276 277 287 297 302 311 315 310 300 284 269 261
217 268 281 277 222 250 291 309 313 310 306 298 296 295 299 305 302 296 277 263 278 296 305 308 318 330 334 347 358 3 7 10 11 6 2 353 341 333 322 315 309 307 310 310 305 294 280 269 269 263 250 243 251 264 269 270 271 273 274 273 272 270 266 254 250 259 261 261 266 263 257 257 258 259 259 259 261 262 260 260 264 267 269 269 274 278 278 283 291 298 307 310 309 304 291 276 265
162 267 298 305 274 267 292 305 304 301 295 294 296 291 291 290 294 306 290 285 303 314 317 332 348 354 354 6 11 12 10 6 4 1 357 347 336 330 324 319 314 311 309 306 301 293 282 265 257 252 238 227 226 240 254 264 271 274 279 280 278 278 275 260 246 248 248 249 258 267 265 259 259 260 260 262 263 266 267 263 260 262 265 268 274 279 281 286 291 296 301 305 307 304 294 281 270
162 236 282 296 283 287 301 304 300 299 297 298 297 283 282 284 279 286 290 307 2 23 23 29 19 9 5 358 1 12 11 2 357 350 341 332 327 323 319 316 314 311 307 305 302 297 289 271 246 231 225 219 216 219 233 252 266 274 282 288 290 288 285 280 265 258 258 249 247 260 269 266 264 263 260 264 267 268 270 267 262 260 260 266 269 270 278 288 290 291 297 301 304 303 297 286 274
196 229 283 293 294 301 304 300 298 299 299 296 291 283 289 303 287 280 309 18 45 31 31 46 28 12 6 354 350 352 354 351 342 332 323 317 314 312 312 312 315 319 320 319 318 313 308 292 251 224 218 215 217 214 214 228 249 268 282 289 295 298 293 289 277 264 265 264 252 254 265 267 268 269 263 261 265 267 268 266 267 267 263 266 271 275 281 286 286 291 298 300 301 302 299 289 278
249 283 297 292 297 303 300 292 291 294 293 284 259 275 292 331 264 278 46 51 45 30 47 49 19 13 11 358 341 337 339 339 335 327 318 311 306 309 315 318 320 327 331 330 329 329 331 323 291 245 221 214 219 216 209 210 222 243 262 279 290 302 305 297 285 263 254 256 252 252 261 264 264 272 270 261 263 267 267 265 267 270 265 263 269 278 281 280 287 296 300 300 299 302 302 294 285
314 322 305 297 309 307 295 287 288 290 292 282 229 256 298 79 204 157 57 46 40 39 46 38 20 21 14 353 342 337 335 336 332 327 327 329 330 333 336 340 341 342 339 339 345 346 345 338 323 287 243 223 225 222 213 207 209 222 237 259 274 289 299 301 291 272 256 249 246 247 254 258 259 268 269 266 270 272 271 268 266 266 265 266 269 274 277 281 291 296 299 302 303 302 301 298 292
319 351 320 308 336 324 298 294 291 203 270 307 158 276 318 248 216 93 56 40 28 27 33 33 30 32 23 6 351 345 340 335 330 332 344 354 360 2 359 359 359 357 353 353 354 350 345 338 328 305 272 250 239 230 219 208 206 213 223 243 259 275 283 292 278 259 259 252 243 247 252 259 264 267 263 262 270 274 278 280 278 274 267 265 270 275 279 285 289 290 295 303 304 301 300 301 299
306 13 28 320 349 327 301 47 116 49 285 258 120 286 292 263 248 58 43 21 18 24 32 32 39 45 34 25 0 357 347 334 338 350 3 10 13 16 15 14 11 7 5 0 354 351 350 341 322 296 270 257 248 237 224 209 203 204 209 222 245 281 295 342 331 323 313 286 285 293 291 285 286 285 275 270 271 270 273 275 278 282 279 275 278 281 282 285 290 293 296 298 299 299 302 305 302
312 359 35 353 350 280 294 347 254 16 316 199 141 223 265 275 289 28 23 5 15 30 42 38 47 55 39 36 16 5 356 349 360 10 15 21 24 26 26 25 21 17 13 8 8 10 6 356 343 320 285 258 245 234 220 207 196 190 190 190 182 154 99 64 14 338 326 311 296 287 288 290 281 279 278 278 278 274 277 276 274 280 282 278 279 283 286 288 292 295 295 293 296 300 305 307 305
17 334 313 333 176 266 308 336 213 146 359 131 127 205 271 279 287 20 7 353 8 37 59 60 63 64 54 48 36 21 16 15 22 26 28 31 33 33 35 35 33 29 25 23 24 26 25 27 29 25 27 41 60 73 85 157 171 168 157 147 147 141 123 122 157 251 258 258 267 256 256 270 263 260 258 258 268 280 294 294 286 288 289 282 278 281 289 293 292 289 288 291 295 300 304 306 307
1 185 250 275 207 277 319 346 20 69 96 50 72 222 279 284 285 348 359 354 12 53 76 78 77 73 66 59 52 45 37 37 40 44 44 42 42 41 40 41 40 38 38 38 35 35 40 46 48 48 52 54 55 57 52 57 78 117 125 119 119 116 105 125 169 210 232 237 250 254 250 256 257 262 261 254 261 273 285 287 280 284 291 290 286 284 286 288 287 283 283 288 292 297 300 302 305
312 15 228 250 217 242 301 310 353 32 62 9 17 219 256 275 289 339 6 10 35 76 85 81 82 77 73 70 63 55 48 49 51 51 52 51 51 49 45 43 41 41 42 41 40 40 44 48 51 51 53 55 55 54 54 58 64 83 105 115 119 107 94 76 70 211 232 233 253 270 262 261 266 273 279 271 267 267 271 275 272 274 278 281 280 277 280 287 292 294 296 297 297 296 295 297 298
218 197 204 252 236 233 262 269 313 15 20 343 344 273 268 277 293 359 21 30 65 87 89 86 86 83 81 76 69 65 61 59 57 57 59 61 60 57 54 50 46 45 46 47 48 50 54 58 61 63 62 62 64 64 66 72 76 83 92 106 117 109 110 99 72 64 44 40 348 326 290 282 287 280 277 275 273 270 266 263 263 266 267 270 271 266 267 276 280 282 287 289 288 290 292 295 297
194 188 166 193 227 249 245 249 267 350 353 296 250 247 269 280 302 9 24 52 82 92 94 89 88 85 82 79 75 74 72 69 67 67 68 70 70 68 68 66 64 64 64 65 65 66 68 70 73 75 74 73 76 77 78 82 85 88 93 104 111 101 99 95 92 107 9 10 342 345 331 311 315 303 286 277 278 282 281 276 269 265 260 262 269 268 268 271 270 270 275 277 278 281 286 293 300
146 147 152 189 221 265 259 259 286 126 194 269 230 226 265 277 322 5 21 67 78 84 91 86 86 86 84 84 82 81 79 79 80 82 81 80 80 80 79 78 77 77 76 73 72 71 70 70 71 72 75 79 80 79 79 83 83 82 83 85 95 97 94 82 89 111 334 358 317 320 321 311 312 316 317 308 302 299 301 308 303 289 276 272 277 279 280 283 282 279 277 277 277 277 278 283 291
119 146 212 252 223 254 259 259 304 12 166 265 327 284 275 287 9 14 31 63 60 67 88 86 89 90 89 91 90 91 92 93 94 92 90 89 88 87 85 84 82 79 76 73 71 70 70 71 70 70 71 73 72 73 72 71 69 64 61 65 66 77 90 83 70 54 19 22 329 307 306 303 301 309 320 322 318 311 302 308 314 314 316 314 311 307 303 302 298 292 286 283 284 285 286 288 292
196 145 196 269 236 270 287 290 334 25 171 266 351 325 280 332 50 31 46 67 66 75 93 95 99 98 97 99 99 102 102 101 98 95 93 91 89 87 85 83 80 77 75 73 70 69 69 69 69 68 68 67 67 67 66 65 64 61 60 62 60 61 66 59 45 36 14 341 319 301 293 293 291 296 307 310 310 310 303 300 301 304 307 309 310 310 309 308 306 304 303 302 300 300 301 300 298
206 163 172 251 233 293 283 293 336 16 105 257 356 327 287 101 87 47 58 83 83 82 93 97 102 103 103 107 107 107 106 102 99 97 95 93 90 87 85 82 79 78 76 73 71 68 67 66 65 65 64 63 63 62 62 62 62 61 61 61 58 59 61 58 50 48 40 21 5 353 334 317 301 291 292 295 297 299 298 298 298 298 299 299 300 301 302 303 302 303 306 309 309 308 307 303 301
240 199 197 227 219 212 229 278 334 356 16 23 61 341 303 253 132 77 76 90 82 81 91 92 99 107 110 114 113 111 107 104 102 100 97 93 90 87 84 82 80 78 75 72 70 67 66 66 65 64 63 61 61 60 61 61 61 62 63 65 65 67 73 73 66 62 58 52 46 39 32 24 10 351 332 319 309 303 300 299 300 300 299 299 298 298 299 300 300 299 300 301 303 303 302 300 300
284 230 208 216 219 221 232 327 16 13 345 340 48 351 296 313 325 180 162 80 68 72 82 90 104 116 121 121 117 114 110 107 104 101 98 94 90 87 84 83 80 78 75 71 69 67 66 65 65 64 64 63 62 62 63 63 64 66 66 69 70 70 70 66 59 57 54 50 49 46 43 40 35 30 24 15 4 352 339 327 320 315 312 311 310 309 307 306 305 303 302 300 299 299 299 297 296
289 250 205 208 205 194 200 162 105 138 250 303 32 183 257 313 313 195 165 106 84 75 74 103 127 130 131 127 123 120 114 110 108 104 101 96 92 89 86 83 80 77 75 73 71 68 66 64 63 62 61 62 61 60 60 58 58 58 55 54 56 54 53 56 55 53 52 50 49 49 46 44 42 38 35 32 28 21 14 5 359 352 346 342 338 334 330 328 326 322 318 313 306 301 298 296 296
230 245 152 153 167 177 183 157 152 217 251 323 357 127 229 289 285 199 148 124 114 152 144 147 150 143 140 136 131 126 120 116 113 109 104 99 94 90 87 84 81 79 77 76 73 69 66 62 60 58 57 57 56 53 50 47 45 44 43 41 44 47 50 56 57 54 55 53 48 48 47 45 43 40 39 37 34 32 27 21 16 11 6 3 359 354 349 346 341 334 328 321 314 308 302 299 298
234 194 122 128 148 153 137 123 138 311 358 310 306 73 234 265 275 298 147 155 181 197 196 187 172 158 150 146 139 131 126 122 117 112 107 101 97 93 90 87 84 82 81 77 73 69 65 61 57 54 55 54 53 49 42 41 42 39 39 38 42 50 53 57 58 56 55 49 43 45 43 41 40 38 38 37 36 35 33 30 26 20 17 15 11 9 5 359 354 347 342 336 328 320 312 306 301
186 140 101 82 85 85 85 104 107 47 40 253 249 193 206 269 281 276 195 217 211 193 192 193 182 170 160 154 147 138 131 126 121 116 110 106 102 98 95 92 89 86 81 76 72 69 64 61 55 49 53 54 53 52 44 44 48 44 46 48 51 59 62 61 59 54 52 45 40 42 40 38 36 33 32 31 29 30 28 26 25 23 22 20 17 15 12 8 6 4 1 356 350 341 330 318 309
139 119 77 63 50 49 52 67 88 69 272 246 238 213 195 270 277 228 190 214 186 161 166 192 192 182 171 162 153 144 137 132 126 120 116 112 108 104 101 98 94 87 82 77 72 68 62 58 51 43 50 54 55 57 51 53 59 55 58 62 63 67 68 63 56 50 49 42 37 38 36 33 31 28 26 23 21 22 20 17 16 16 15 14 13 13 12 11 9 7 5 2 360 357 352 343 332
121 103 84 89 15 24 32 3 51 124 252 257 263 250 177 217 264 249 211 211 173 165 173 182 192 188 176 166 158 149 143 137 132 127 124 119 115 113 110 105 97 92 87 80 72 66 58 53 45 37 46 54 55 57 54 54 59 59 61 62 61 61 57 47 40 41 40 35 35 35 30 27 25 22 19 15 14 14 12 10 9 7 6 6 7 7 7 8 6 4 2 0 359 357 356 353 349
91 98 99 99 346 4 355 312 194 217 243 260 281 195 186 228 248 237 215 214 216 227 210 187 186 184 176 169 163 156 150 145 140 136 133 128 125 124 120 114 105 99 93 81 73 64 52 48 40 31 41 56 58 56 55 51 51 53 53 50 47 45 38 31 28 29 28 26 26 22 17 16 14 11 11 10 10 9 5 3 2 0 360 360 360 359 358 358 357 357 357 357 357 355 353 352 351
146 143 129 128 121 131 258 262 260 260 248 236 243 178 205 264 262 222 224 253 260 255 235 203 190 180 173 170 165 161 158 153 149 147 143 140 139 136 132 127 119 112 101 85 73 60 47 42 34 26 42 63 63 56 51 43 41 44 42 38 37 33 27 24 21 20 20 19 16 14 12 11 9 7 7 6 6 4 360 358 357 355 353 352 350 349 348 348 347 347 347 347 348 349 348 347 346
180 163 132 142 152 170 223 218 205 243 266 268 264 189 186 209 238 232 245 281 292 268 236 206 194 183 173 172 170 168 165 161 159 157 156 155 152 150 148 143 138 131 115 94 76 61 40 30 25 23 41 60 59 52 45 36 36 37 32 29 27 24 21 18 17 17 15 13 11 9 7 6 4 3 1 358 355 352 351 350 348 346 345 344 342 341 339 338 338 338 338 337 337 337 337 337 336
232 124 110 154 182 157 169 196 174 177 287 290 230 224 216 187 207 272 270 299 318 263 207 190 190 185 179 179 177 173 171 168 168 168 167 169 167 165 166 162 161 157 145 139 116 93 39 18 21 20 43 65 60 48 40 36 37 33 28 25 20 19 18 13 11 9 6 5 2 358 356 354 352 350 347 344 342 340 338 337 337 336 336 336 335 334 333 332 331 330 330 329 328 328 328 329 329
165 122 173 218 182 119 111 252 54 83 260 270 195 235 285 337 264 299 6 322 319 181 180 180 183 183 183 186 182 178 176 174 174 176 177 180 180 180 181 179 183 185 185 189 185 185 191 191 183 167 153 132 104 80 64 58 55 43 35 31 24 19 13 5 2 359 355 353 349 344 341 338 336 333 331 330 328 327 325 325 325 325 325 326 327 327 327 327 326 325 324 323 322 322 322 323 322
125 176 208 198 120 91 100 233 355 42 247 273 218 221 248 193 236 309 52 255 258 233 199 183 183 186 189 190 185 181 179 178 181 184 186 189 190 193 196 195 199 202 203 203 202 205 199 187 182 174 172 168 158 154 134 111 90 65 44 33 22 12 4 357 353 348 343 340 336 332 330 328 326 324 321 319 317 315 315 314 315 315 315 316 317 318 319 319 319 319 320 320 319 318 317 317 317
122 183 180 109 134 157 102 163 228 252 247 281 296 245 231 201 200 207 202 211 213 208 202 195 193 193 194 194 189 186 185 185 188 189 191 195 196 201 205 206 210 208 208 209 208 208 197 185 180 173 178 178 170 166 145 119 100 72 42 25 12 360 355 348 343 340 337 333 330 329 328 328 326 324 322 320 318 316 315 313 314 314 314 314 314 314 314 313 313 314 314 315 315 315 314 313 313
74 111 116 74 157 171 153 153 172 204 230 278 299 293 249 230 198 179 196 201 187 183 194 202 201 198 197 195 191 190 189 188 191 193 195 198 201 208 210 210 213 210 210 212 209 205 193 184 183 183 191 190 179 175 166 146 104 57 21 8 357 348 346 341 338 337 333 330 327 325 325 325 324 325 324 323 322 320 318 317 317 317 316 316 316 315 314 313 313 312 312 312 312 312 311 311 311
131 144 172 195 133 127 198 216 122 141 175 219 276 280 264 253 197 183 197 193 178 183 188 194 200 200 199 196 191 190 190 190 193 196 199 202 205 211 213 213 213 211 213 214 209 203 194 191 194 193 193 188 182 184 182 162 7 7 355 348 343 338 335 332 331 329 326 325 324 324 324 324 324 325 323 323 323 322 321 320 318 317 317 316 315 314 314 313 313 312 312 311 310 310 309 309 308
164 177 187 184 167 130 177 251 199 128 172 183 209 268 270 250 199 201 203 183 185 190 183 184 197 199 199 196 191 189 190 193 198 201 203 208 211 214 217 218 217 215 217 214 206 199 195 196 194 188 186 189 197 211 271 343 343 340 333 329 328 328 327 327 327 327 326 326 327 327 327 326 326 325 325 324 324 324 324 322 320 318 316 314 313 312 312 311 311 310 310 310 310 309 308 307 306